Regional Weather Roundup
Issued by NWS

Home | Current Version | Previous Version | Text Only | Print | Product List | Glossary Off
Versions: 1 2 3 4 5 6 7 8 9 10 11 12 13 14 15 16 17 18 19 20 21 22 23 24 25 26 27 28 29 30 31 32 33 34 35 36 37 38 39 40 41 42 43 44 45 46 47 48 49 50

000
ASUS43 KLOT 161306
RWRIL

ILLINOIS REGIONAL WEATHER ROUNDUP
NATIONAL WEATHER SERVICE CHICAGO/ROMEOVILLE IL
800 AM CDT TUE SEP 16 2014

NOTE: "FAIR" INDICATES FEW OR NO CLOUDS BELOW 12,000 FEET WITH NO
SIGNIFICANT WEATHER AND/OR OBSTRUCTIONS TO VISIBILITY.

* THESE STATIONS ARE NOT UNDER NWS QUALITY CONTROL. THEY ALSO MAY NOT
  REPORT WEATHER SUCH AS PRECIPITATION OR FOG.

ILZ001-002-007-009-015-016-024-161400-
NORTHWEST ILLINOIS

CITY           SKY/WX    TMP DP  RH WIND       PRES   REMARKS
MOLINE         SUNNY     46  44  93 CALM      30.25R
STERLING*      SUNNY     45  41  87 CALM      30.24S
SAVANNA*       SUNNY     43  42  95 CALM      30.24S FOG
$$

ILZ003-004-008-010-011-017-018-161400-
NORTH CENTRAL ILLINOIS

CITY           SKY/WX    TMP DP  RH WIND       PRES   REMARKS
ROCKFORD       SUNNY     43  41  93 CALM      30.24S
FREEPORT*      SUNNY     42  41  96 CALM      30.25S FOG
ROCHELLE*      MOSUNNY   39  39  98 CALM      30.24S FOG
DE KALB*       SUNNY     44  42  93 N3        30.23S
PERU*          MOSUNNY   43  43  98 W3        30.24S
$$

ILZ005-006-012>014-019>023-161400-
NORTHEAST ILLINOIS

CITY           SKY/WX    TMP DP  RH WIND       PRES   REMARKS
CHICAGO-OHARE  MOSUNNY   48  43  82 N7        30.21R
CHICAGO-MIDWAY MOSUNNY   51  46  83 NW5       30.21R
AURORA         SUNNY     45  42  89 NW3       30.23R
LANSING*       SUNNY     50  48  92 NW3       30.21S
JOLIET*        SUNNY     46  44  93 CALM      30.23S
WAUKEGAN       SUNNY     48  43  82 NW3       30.20S
DUPAGE AIRPORT SUNNY     48  44  86 CALM      30.21S
KANKAKEE*      SUNNY     49  47  95 NW3       30.22S
WHEELING       SUNNY     50  44  80 NW5       30.22S
MORRIS*        SUNNY     45  45 100 CALM      30.22S
ROMEOVILLE*    SUNNY     46  46 100 CALM      30.22S
NORTHERLY ISL    N/A     55  46  71 W2          N/A
$$

LMZ740>746-161400-
SOUTHERN LAKE MICHIGAN

STATION/POSITION SKY/WX   TEMP    WIND        PRES    VSBY  WAVE
                          AIR SEA DIR/SP/G                  HT/PER
                          (F)     (DEG/KT/KT) (MB)    (MI)  (FT/S)
SOUTHERN BUOY              58 64  350/ 12/ 14 1022.3R         2/ 4
WAUKEGAN HARBOR            50     330/  7/  9   N/A
HARRISON CRIB              51     300/  8/  9   N/A
BURNHAM HARBOR             54     250/  3/  4   N/A
CALUMET HARBOR             51     280/  3/  4   N/A
MICHIGAN CITY              54     130/  4/  6   N/A
MICHIGAN CITY 6N           56 64  160/  4/  8   N/A           2/ 4
ST. JOSEPH                 56 67  110/  8/ 10   N/A           1/ 4
$$

ILZ025>027-034>036-040-047-049-050-058-095>099-161400-
WEST-CENTRAL ILLINOIS

CITY           SKY/WX    TMP DP  RH WIND       PRES   REMARKS
QUINCY         SUNNY     50  48  93 CALM      30.24S FOG
GALESBURG*     FOG       43  43 100 CALM      30.25S VSB 3/4
MACOMB*        SUNNY     45  45 100 NW3       30.27S FOG
JACKSONVILLE*  SUNNY     52  51  98 N6        30.24F
PITTSFIELD*    SUNNY     52  49  92 N3        30.25S
$$

ILZ028>032-037-038-041>044-048-051>054-059>061-161400-
CENTRAL ILLINOIS

CITY           SKY/WX    TMP DP  RH WIND       PRES   REMARKS
PONTIAC        FOG       46  46 100 CALM      30.23S VSB 1/2
DECATUR        CLOUDY    54  51  90 N3        30.23S
PEORIA         FOG       49  46  90 NW3       30.24S VSB 3/4
LACON*         FOG       46  45  97 CALM      30.24S VSB 1/4
LINCOLN*       SUNNY     50  49  96 CALM      30.23R
SPRINGFIELD    PTSUNNY   53  50  89 CALM      30.24R FOG
TAYLORVILLE    CLOUDY    52  50  93 N5        30.23S FOG
$$

ILZ033-039-045-046-055>057-062-063-161400-
EAST-CENTRAL ILLINOIS

CITY           SKY/WX    TMP DP  RH WIND       PRES   REMARKS
CHAMPAIGN      SUNNY     54  51  90 N5        30.22S FOG
DANVILLE*      CLOUDY    51  50  94 N6        30.19S FOG
RANTOUL*       SUNNY     53  49  86 N3        30.22F
MATTOON        CLOUDY    55  53  93 N7        30.21S FOG
PARIS*         CLOUDY    55  53  94 CALM      30.21F
$$

ILZ079-100>102-161400-
SOUTHWEST ILLINOIS

CITY           SKY/WX    TMP DP  RH WIND       PRES   REMARKS
ALTON          CLOUDY    55  54  94 NE7       30.23R
BELLEVILLE     SUNNY     56  54  92 NW2       30.21S
CAHOKIA*       CLOUDY    59  53  80 N6        30.23R
SPARTA*        SUNNY     55  53  90 NE3       30.23S
$$

ILZ064>066-069>071-074>076-080>082-084>086-088>090-092>094-161400-
SOUTH-CENTRAL ILLINOIS

CITY           SKY/WX    TMP DP  RH WIND       PRES   REMARKS
CARBONDALE     CLOUDY    58  52  80 NE8       30.20S
CAIRO*         CLOUDY    63  56  80 N7        30.18S
EFFINGHAM*     CLOUDY    56  52  86 N5        30.21S FOG
MARION         CLOUDY    59  55  88 N7        30.21R
MT. VERNON     CLOUDY    55  48  76 NE3       30.22S
CENTRALIA*     CLOUDY    56  51  84 N7        30.22S
SALEM*         CLOUDY    58  55  90 NE6       30.22S
METROPOLIS*    CLOUDY    60  56  84 N7        30.18R
$$

ILZ067-068-072-073-078-083-087-091-161400-
SOUTHEAST ILLINOIS

CITY           SKY/WX    TMP DP  RH WIND       PRES   REMARKS
LAWRENCEVILLE  CLOUDY    58  54  86 N9        30.20R
FLORA*         SUNNY     56  53  89 N6        30.21S
FAIRFIELD*     CLOUDY   N/A N/A N/A N5        30.20S
HARRISBURG*    CLOUDY    59  56  90 N8        30.20S
ROBINSON*      CLOUDY    57  56  94 N6        30.21S FOG
CARMI*         CLOUDY    60  57  89 N5        30.19S
$$

ABBREVIATIONS USED IN REMARKS
   TC - TEMPERATURE IN CELSIUS
  WCI - WIND CHILL INDEX
   HX - HEAT INDEX
  VSB - VISIBILITY
$$



USA.gov is the U.S. government's official web portal to all federal, state and local government web resources and services.